Regional Weather Roundup
Issued by NWS

Home | Current Version | Previous Version | Text Only | Print | Product List | Glossary Off
Versions: 1 2 3 4 5 6 7 8 9 10 11 12 13 14 15 16 17 18 19 20 21 22 23 24 25 26 27 28 29 30 31 32 33 34 35 36 37 38 39 40 41 42 43 44 45 46 47 48 49 50

286
ASUS43 KMPX 221910
RWRMN
WEATHER ROUNDUP FOR MINNESOTA
NATIONAL WEATHER SERVICE TWIN CITIES/CHANHASSEN MN
200 PM CDT MON MAY 22 2017


NOTE: "FAIR" INDICATES FEW OR NO CLOUDS BELOW 12,000 FEET WITH NO
SIGNIFICANT WEATHER AND/OR OBSTRUCTIONS TO VISIBILITY. N/A MEANS
CURRENT SKY AND/OR WEATHER CONDITIONS ARE NOT AVAILABLE.

MNZ060>063-068>070-222000-
   Twin Cities Metro

CITY           SKY/WX    TMP DP  RH WIND       PRES   REMARKS
TWIN CITIES    MOSUNNY   64  42  44 W13G20    29.83F
ST PAUL        SUNNY     63  43  48 NW12      29.83F
CRYSTAL        SUNNY     63  40  42 W15G23    29.82F
BLAINE         MOSUNNY   63  43  48 W14       29.83F
LAKEVILLE      SUNNY     63  48  59 NW9G16    29.83F
EDEN PRAIRIE   MOSUNNY   64  43  46 W12G22    29.83F
SOUTH ST PAUL  SUNNY     63  41  44 W10G16    29.83F
LAKE ELMO      FAIR      63  45  51 NW9G17    29.84S
$$
MNZ001>005-007-008-013>017-022>024-027-028-222000-
   Northwest Minnesota

CITY           SKY/WX    TMP DP  RH WIND       PRES   REMARKS
BEMIDJI        CLOUDY    49  42  79 NW15      29.80R
HALLOCK        DRIZZLE   52  46  82 NW14      29.85R
ROSEAU         LGT RAIN  46  43  87 N13       29.82R
WARROAD        DRIZZLE   46  43  87 NW7       29.81R
THIEF RVR FALL LGT RAIN  48  43  82 NW12      29.84R
CROOKSTON      CLOUDY    50  45  81 N17G24    29.85S
FOSSTON        LGT RAIN  48  43  81 NW9       29.82S
DETROIT LAKES  PTSUNNY   52  43  71 NW14      29.84S
MOORHEAD       PTSUNNY   55  43  62 N15G21    29.86R
PARK RAPIDS    LGT RAIN  54  42  64 W9        29.80S
MAHNOMEN       CLOUDY    49  43  77 NW13      29.83S
$$
MNZ006-009>011-018-025>026-222000-
   North Central Minnesota

CITY           SKY/WX    TMP DP  RH WIND       PRES   REMARKS
BAUDETTE       LGT RAIN  48  44  86 NW9       29.78R
FLAG ISLAND    LGT RAIN  46  43  87 N10G16    29.78R
INTL FALLS     LGT RAIN  47  43  86 NW8       29.76R FOG
WASKISH        CLOUDY    48  45  87 W8        29.79R
BIG FORK       CLOUDY    54  45  71 W6        29.76F
LONGVILLE      CLOUDY    52  43  71 W9        29.79R
GRAND RAPIDS   CLOUDY    51  44  77 W12       29.79S
CRANE LAKE     CLOUDY    48  43  81 W5        29.75S
ORR            CLOUDY    48  43  81 W5        29.72S
COOK           PTSUNNY   50  43  76 W13G20    29.76R
WALKER         CLOUDY    50  43  76 W10       29.80R
$$
MNZ012-019>021-037-222000-
   Northeast Minnesota

CITY           SKY/WX    TMP DP  RH WIND       PRES   REMARKS
DULUTH         CLOUDY    52  45  77 W10       29.77S
ELY            CLOUDY    50  43  76 W7        29.73S
HIBBING        CLOUDY    50  45  83 SW10      29.76S
EVELETH        CLOUDY    50  41  71 W9        29.77S
DULUTH HARBOR  CLOUDY    54  46  76 W9        29.79S
TWO HARBORS    DRIZZLE   54  46  76 W9        29.75R
SILVER BAY     CLOUDY    54  45  71 W8        29.73S
GRAND MARAIS     N/A     43  41  93 W10       29.73R
G MARAIS ARPRT CLOUDY    48  41  76 SW8       29.72S
$$
MNZ029>031-032-039>041-046>048-054>057-064-222000-
   West Central Minnesota

CITY           SKY/WX    TMP DP  RH WIND       PRES   REMARKS
FERGUS FALLS   CLOUDY    55  43  62 NW17      29.83F
WHEATON        PTSUNNY   59  43  55 NW9       29.87F
MORRIS         MOSUNNY   61  45  55 NW16G23   29.85F
ALEXANDRIA     PTSUNNY   58  42  55 W14G25    29.85F
ELBOW LAKE     PTSUNNY   57  43  59 NW15      29.85F
WADENA         CLOUDY    54  43  66 W6        29.82S
GLENWOOD       MOSUNNY   57  43  58 W13G22    29.85F
APPLETON       MOSUNNY   63  39  42 N10G16    29.86F
BENSON         MOSUNNY   63  43  48 NW13      29.87F
ORTONVILLE     MOSUNNY   61  39  44 NW10      29.87F
MADISON        MOSUNNY   63  46  55 N12       29.86F
WILLMAR        FAIR      61  46  59 NW12      29.87F
$$
MNZ033>034-036-042>043-049>051-058-059-222000-
   Central Minnesota

CITY           SKY/WX    TMP DP  RH WIND       PRES   REMARKS
ST CLOUD       PTSUNNY   58  44  60 NW12      29.83F
SAUK CENTRE    FAIR      56  42  59 W12       29.84F
PAYNESVILLE    CLOUDY    56  43  61 NW9       29.85F
AITKIN         CLOUDY    52  43  71 W9        29.79R
PINE RIVER     CLOUDY    55  43  62 W9G18     29.83S
BRAINERD       CLOUDY    53  42  66 NW7       29.81S
STAPLES        CLOUDY    55  41  58 W15       29.82R
LONG PRAIRIE   CLOUDY    55  41  58 SW13      29.84S
LITTLE FALLS   CLOUDY    55  39  54 W9        29.83F
LITCHFIELD     SUNNY     61  45  55 W10G18    29.85F
BUFFALO        MOSUNNY   60  42  50 W14       29.85F
MAPLE LAKE     PTSUNNY   61  46  58 W9        29.85F
HUTCHINSON     MOSUNNY   62  49  61 W10G21    29.86S
$$
MNZ037-044-045-052-053-222000-
   East Central Minnesota

CITY           SKY/WX    TMP DP  RH WIND       PRES   REMARKS
PRINCETON      PTSUNNY   59  45  58 W7        29.83F
MORA           PTSUNNY   55  41  58 W8        29.84S
CAMBRIDGE      CLOUDY    61  45  55 W10G17    29.81F
RUSH CITY      PTSUNNY   58  44  60 W8        29.83S
MOOSE LAKE     CLOUDY    54  41  62 W6        29.79S
HINCKLEY       CLOUDY    57  46  67 W10G17    29.82S
CLOQUET        CLOUDY    52  43  71 SW8       29.79R
MCGREGOR       CLOUDY    54  43  66 W8        29.80S
$$
MNZ071>073-080-081-089-090-097-098-222000-
   Southwest Minnesota

CITY           SKY/WX    TMP DP  RH WIND       PRES   REMARKS
MONTEVIDEO     PTSUNNY   64  46  52 VRB9G17   29.86S
GRANITE FALLS  MOSUNNY   64  50  59 NW7G16    29.87F
CANBY          MOSUNNY   63  47  55 NW3       29.87S
MARSHALL       CLOUDY    61  46  57 VRB7      29.86F
REDWOOD FALLS  SUNNY     64  43  46 NW8       29.85F
OLIVIA         MOSUNNY   61  46  59 NW9       29.85F
PIPESTONE      MOSUNNY   63  46  55 NW9       29.85S
WINDOM         SUNNY     66  45  45 W6        29.85F
WORTHINGTON    CLOUDY    65  49  56 VRB3      29.85F
JACKSON        SUNNY     64  43  45 CALM      29.86S
TRACY          CLOUDY    63  49  60 CALM      29.86F
SLAYTON        HVY RAIN  58  48  68 N9        29.86F
$$
MNZ065>067-074>077-082>085-091>093-222000-
   South Central Minnesota

CITY           SKY/WX    TMP DP  RH WIND       PRES   REMARKS
MANKATO        SUNNY     62  45  53 N8        29.85
NEW ULM        MOSUNNY   63  45  51 N9        29.84F
ST JAMES       SUNNY     64  45  48 NW5       29.86F
FAIRMONT       SUNNY     65  43  44 N6        29.85F
GLENCOE        SUNNY     63  51  64 W12       29.84F
FARIBAULT      SUNNY     64  46  52 W8        29.85F
OWATONNA       SUNNY     64  45  48 SW3       29.85F
WASECA         SUNNY     63  46  55 W10       29.86F
ALBERT LEA     SUNNY     66  45  45 N5        29.85F
$$
MNZ078>079-086>088-094>096-222000-
   Southeast Minnesota

CITY           SKY/WX    TMP DP  RH WIND       PRES   REMARKS
ROCHESTER      SUNNY     65  48  54 W10       29.86F
RED WING       SUNNY     66  37  34 W15G21    29.82F
STANTON        MOSUNNY   64  47  53 W9G17     29.83F
DODGE CENTER   SUNNY     64  45  48 NW5       29.85F
WINONA         MOSUNNY   70  46  43 W6        29.83F
AUSTIN         SUNNY     66  43  42 NW7       29.84F
PRESTON        SUNNY     64  47  55 SW8       29.86F
$$
ABBREVIATIONS USED IN REMARKS
   TC - TEMPERATURES IN CELSIUS
  WCI - WIND CHILL INDEX
   HX - HEAT INDEX
  VSB - VISIBILITY
$$




USA.gov is the U.S. government's official web portal to all federal, state and local government web resources and services.